Wilmington, DE

10:32 PM EDT on June 27, 2017 (GMT -0400)
New Castle County

Weather History for KILG - March, 2013

Change the Weather History Date:

Wednesday, March 6, 2013

  Actual Average Record
Temperature  
Mean Temperature 38 °F 40 °F  
Max Temperature 41 °F 49 °F 71 °F (1935)
Min Temperature 35 °F 31 °F 5 °F (2015)
Degree Days  
Heating Degree Days 27 25  
Month to date heating degree days 169 156  
Since 1 July heating degree days 3564 3779  
Cooling Degree Days 0 0  
Month to date cooling degree days 0 0  
Year to date cooling degree days 0 0  
Moisture  
Dew Point 33 °F    
Average Humidity 78    
Maximum Humidity 85    
Minimum Humidity 70    
Precipitation  
Precipitation 0.24 in 0.11 in 1.26 in (1932)
Month to date precipitation 0.24 0.63  
Year to date precipitation 6.25 6.32  
Snow  
Snow 0.00 in 0.10 in 6.00 in (1923)
Month to date snowfall 0.0 0.7  
Since 1 July snowfall 4.2 18.7  
Snow Depth 0.00 in    
Sea Level Pressure  
Sea Level Pressure 29.79 in    
Wind  
Wind Speed 22 mph (NE)    
Max Wind Speed 37 mph    
Max Gust Speed 48 mph    
Visibility 10 miles    
Events Rain    
T = Trace of Precipitation, MM = Missing Value Source: NWS Daily Summary

Daily Weather History Graph

Daily Weather History Graph

Search for Another Location

Airport or City:

Trip Planner

Search our weather history database for the weather conditions in past years. The results will help you decide how hot, cold, wet, or windy it might be!

Date:

Astronomy

Mar. 06, 2013 Rise Set
Actual Time 6:27 AM EST 6:00 PM EST
Civil Twilight 6:00 AM EST 6:27 PM EST
Nautical Twilight 5:29 AM EST 6:58 PM EST
Astronomical Twilight 4:58 AM EST 7:29 PM EST
Moon 2:33 AM EST (3/6) 12:40 PM EST (3/6)
Length of Visible Light 12h 26m
Length of Day
11h 32m
Waning Crescent, 30% of the Moon is Illuminated
Mar 6
Waning Crescent
Mar 11
New
Mar 19
First Quarter
Mar 27
Full
Apr 3
Last Quarter

Hourly Weather History & Observations

Time (EST) Temp. Windchill Dew Point Humidity Pressure Visibility Wind Dir Wind Speed Gust Speed Precip Events Conditions
12:51 AM 35.1 °F 27.4 °F 28.9 °F 78% 29.89 in 10.0 mi ENE 10.4 mph - N/A   Mostly Cloudy
1:51 AM 36.0 °F 28.5 °F 30.0 °F 79% 29.86 in 10.0 mi ENE 10.4 mph - N/A   Overcast
2:51 AM 37.0 °F 28.9 °F 30.0 °F 76% 29.81 in 10.0 mi NE 12.7 mph - N/A   Overcast
3:51 AM 37.9 °F 28.9 °F 30.9 °F 76% 29.78 in 10.0 mi ENE 16.1 mph 23.0 mph N/A   Overcast
4:03 AM 37.4 °F 28.2 °F 30.2 °F 75% 29.78 in 10.0 mi ENE 16.1 mph 25.3 mph 0.00 in Rain Light Rain
4:35 AM 37.4 °F 27.8 °F 33.8 °F 87% 29.77 in 7.0 mi ENE 17.3 mph 26.5 mph 0.03 in Rain Light Rain
4:51 AM 37.0 °F 27.7 °F 33.1 °F 86% 29.76 in 8.0 mi ENE 16.1 mph 26.5 mph 0.05 in Rain Rain
5:51 AM 37.9 °F 27.6 °F 34.0 °F 86% 29.75 in 9.0 mi ENE 20.7 mph 31.1 mph 0.05 in Rain Light Rain
6:51 AM 37.9 °F 27.3 °F 34.0 °F 86% 29.75 in 10.0 mi ENE 21.9 mph 28.8 mph 0.02 in   Overcast
7:00 AM 37.4 °F 27.5 °F 33.8 °F 87% 29.74 in 10.0 mi NE 18.4 mph 25.3 mph 0.00 in Rain Light Rain
7:51 AM 39.0 °F 28.3 °F 35.1 °F 86% 29.73 in 10.0 mi ENE 24.2 mph 32.2 mph 0.00 in Rain Light Rain
8:51 AM 39.9 °F 29.2 °F 35.1 °F 83% 29.72 in 10.0 mi ENE 25.3 mph 35.7 mph 0.02 in Rain Light Rain
9:51 AM 39.9 °F 28.8 °F 35.1 °F 83% 29.71 in 10.0 mi NE 27.6 mph 39.1 mph 0.00 in Rain Light Rain
10:51 AM 39.9 °F 28.0 °F 35.1 °F 83% 29.70 in 7.0 mi NE 32.2 mph 43.7 mph 0.02 in Rain Light Rain
11:51 AM 39.9 °F 28.4 °F 35.1 °F 83% 29.70 in 10.0 mi NE 29.9 mph 43.7 mph 0.02 in   Overcast
12:51 PM 41.0 °F 30.5 °F 36.0 °F 82% 29.69 in 10.0 mi NE 26.5 mph 36.8 mph 0.00 in   Overcast
1:51 PM 41.0 °F 29.7 °F 35.1 °F 79% 29.70 in 6.0 mi NE 31.1 mph 42.6 mph 0.00 in Rain Light Rain
2:51 PM 39.9 °F 28.6 °F 35.1 °F 83% 29.73 in 9.0 mi NE 28.8 mph 40.3 mph 0.04 in Rain Light Rain
3:51 PM 39.9 °F 29.0 °F 34.0 °F 79% 29.76 in 10.0 mi NNE 26.5 mph 40.3 mph 0.01 in   Overcast
4:13 PM 39.2 °F 27.6 °F 33.8 °F 81% 29.77 in 10.0 mi NNE 28.8 mph 39.1 mph N/A   Overcast
4:51 PM 39.9 °F 28.8 °F 32.0 °F 73% 29.79 in 10.0 mi NNE 27.6 mph 42.6 mph N/A   Overcast
5:51 PM 39.9 °F 28.8 °F 33.1 °F 77% 29.83 in 10.0 mi North 27.6 mph 39.1 mph N/A   Overcast
6:51 PM 39.9 °F 30.0 °F 32.0 °F 73% 29.87 in 10.0 mi North 21.9 mph 35.7 mph N/A   Overcast
7:51 PM 39.0 °F 27.4 °F 30.9 °F 73% 29.89 in 10.0 mi North 28.8 mph 43.7 mph 0.00 in Rain Light Rain
8:51 PM 37.9 °F 28.2 °F 32.0 °F 79% 29.91 in 10.0 mi North 18.4 mph 31.1 mph 0.01 in Rain Light Rain
9:51 PM 37.9 °F 28.5 °F 32.0 °F 79% 29.93 in 10.0 mi North 17.3 mph 25.3 mph 0.00 in Rain Light Rain
10:51 PM 39.0 °F 30.6 °F 30.0 °F 70% 29.94 in 10.0 mi North 15.0 mph 26.5 mph 0.00 in   Overcast
11:51 PM 37.9 °F 27.6 °F 28.9 °F 70% 29.94 in 10.0 mi North 20.7 mph 28.8 mph N/A   Overcast